JNA529 RKSS-RKPC

Flight info

Callsign JNA529
Flight time 0h 45m
Altitude 26000
Route BULTI2Q BULTI Y711 DOTOL DOTOL2M
Aircraft B738/M-SDE2E3FGHIRWXY/LB1

Departure

Time 2026-04-29 09:45
Airport Gimpo International Airport (RKSS)

Arrival

Time 2026-04-29 10:30
Airport Jeju International Airport (RKPC)
Time Latitude Longitude Altitude Speed Heading
2026-04-29 09:19 37.55655 126.80461 59 ft 0 kts 45°
2026-04-29 09:35 37.55655 126.80460 66 ft 1 kts 45°
2026-04-29 09:36 37.55644 126.80447 58 ft 3 kts 46°
2026-04-29 09:36 37.55630 126.80429 63 ft 3 kts 47°
2026-04-29 09:36 37.55617 126.80410 61 ft 3 kts 47°
2026-04-29 09:36 37.55603 126.80391 59 ft 3 kts 46°
2026-04-29 09:37 37.55588 126.80373 60 ft 3 kts 39°
2026-04-29 09:37 37.55572 126.80359 60 ft 3 kts 26°
2026-04-29 09:37 37.55555 126.80353 64 ft 3 kts 343°
2026-04-29 09:37 37.55538 126.80364 57 ft 3 kts 319°
2026-04-29 09:38 37.55532 126.80371 57 ft 0 kts 315°
2026-04-29 09:39 37.55533 126.80369 59 ft 1 kts 315°
2026-04-29 09:39 37.55547 126.80353 59 ft 4 kts 315°
2026-04-29 09:40 37.55560 126.80314 59 ft 5 kts 274°
2026-04-29 09:40 37.55539 126.80266 58 ft 7 kts 225°
2026-04-29 09:40 37.55502 126.80220 60 ft 7 kts 228°
2026-04-29 09:40 37.55464 126.80179 59 ft 7 kts 204°
2026-04-29 09:41 37.55422 126.80197 61 ft 7 kts 133°
2026-04-29 09:41 37.55386 126.80241 62 ft 8 kts 135°
2026-04-29 09:41 37.55342 126.80295 62 ft 10 kts 136°
2026-04-29 09:41 37.55285 126.80367 63 ft 13 kts 135°
2026-04-29 09:42 37.55224 126.80444 61 ft 12 kts 135°
2026-04-29 09:42 37.55164 126.80519 61 ft 12 kts 135°
2026-04-29 09:42 37.55106 126.80591 65 ft 12 kts 136°
2026-04-29 09:42 37.55050 126.80661 65 ft 11 kts 134°
2026-04-29 09:43 37.54995 126.80732 64 ft 11 kts 134°
2026-04-29 09:43 37.54943 126.80799 66 ft 11 kts 135°
2026-04-29 09:43 37.54880 126.80822 62 ft 10 kts 211°
2026-04-29 09:43 37.54828 126.80761 57 ft 10 kts 225°
2026-04-29 09:44 37.54808 126.80685 67 ft 10 kts 288°
2026-04-29 09:44 37.54852 126.80618 66 ft 12 kts 315°
2026-04-29 09:44 37.55023 126.80402 67 ft 73 kts 315°
2026-04-29 09:44 37.55576 126.79709 68 ft 148 kts 314°
2026-04-29 09:45 37.56113 126.79014 193 ft 178 kts 311°
2026-04-29 09:45 37.56993 126.77857 1105 ft 187 kts 311°
2026-04-29 09:45 37.58216 126.76244 2027 ft 204 kts 313°
2026-04-29 09:45 37.59248 126.74873 2327 ft 222 kts 313°
2026-04-29 09:46 37.60343 126.73413 2737 ft 239 kts 314°
2026-04-29 09:46 37.61490 126.71791 3215 ft 254 kts 305°
2026-04-29 09:46 37.62058 126.69667 4107 ft 261 kts 275°
2026-04-29 09:46 37.61935 126.68128 4732 ft 265 kts 256°
2026-04-29 09:47 37.61115 126.66067 5541 ft 273 kts 233°
2026-04-29 09:47 37.59832 126.64273 6394 ft 277 kts 228°
2026-04-29 09:47 37.58496 126.62496 7174 ft 281 kts 227°
2026-04-29 09:47 37.57144 126.60709 7990 ft 283 kts 224°
2026-04-29 09:48 37.55444 126.59448 8773 ft 287 kts 194°
2026-04-29 09:48 37.53455 126.59149 9567 ft 290 kts 181°
2026-04-29 09:48 37.51427 126.59094 10361 ft 294 kts 180°
2026-04-29 09:48 37.49313 126.59033 10633 ft 316 kts 181°
2026-04-29 09:49 37.47063 126.58957 10803 ft 338 kts 181°
2026-04-29 09:49 37.44606 126.58858 10995 ft 360 kts 181°
2026-04-29 09:49 37.42062 126.58748 11153 ft 380 kts 181°
2026-04-29 09:49 37.39373 126.58630 11575 ft 390 kts 181°
2026-04-29 09:50 37.36648 126.58699 12172 ft 393 kts 169°
2026-04-29 09:50 37.34058 126.59750 12876 ft 392 kts 157°
2026-04-29 09:50 37.31501 126.60980 13527 ft 396 kts 159°
2026-04-29 09:50 37.28866 126.62146 14106 ft 400 kts 160°
2026-04-29 09:51 37.26293 126.63390 14608 ft 405 kts 153°
2026-04-29 09:51 37.23882 126.65259 15077 ft 410 kts 146°
2026-04-29 09:51 37.21513 126.67306 15538 ft 416 kts 146°
2026-04-29 09:51 37.19110 126.69373 15996 ft 421 kts 147°
2026-04-29 09:52 37.16667 126.71434 16438 ft 426 kts 148°
2026-04-29 09:52 37.14181 126.73493 16886 ft 430 kts 149°
2026-04-29 09:52 37.11666 126.75554 17309 ft 435 kts 150°
2026-04-29 09:52 37.09108 126.77641 17586 ft 440 kts 150°
2026-04-29 09:53 37.06524 126.79743 18106 ft 444 kts 152°
2026-04-29 09:53 37.03741 126.81324 18444 ft 438 kts 171°
2026-04-29 09:53 37.00748 126.81741 18849 ft 430 kts 184°
2026-04-29 09:53 36.97748 126.81756 19275 ft 431 kts 185°
2026-04-29 09:54 36.94733 126.81786 19630 ft 435 kts 184°
2026-04-29 09:54 36.91734 126.81858 19984 ft 438 kts 184°
2026-04-29 09:54 36.88689 126.81955 20357 ft 440 kts 184°
2026-04-29 09:54 36.85617 126.82060 20721 ft 442 kts 184°
2026-04-29 09:55 36.82529 126.82162 21068 ft 445 kts 184°
2026-04-29 09:55 36.79420 126.82262 21382 ft 448 kts 184°
2026-04-29 09:55 36.76291 126.82362 21693 ft 451 kts 184°
2026-04-29 09:55 36.73155 126.82462 22058 ft 452 kts 184°
2026-04-29 09:56 36.70006 126.82570 22406 ft 454 kts 184°
2026-04-29 09:56 36.66835 126.82693 22736 ft 456 kts 184°
2026-04-29 09:56 36.63643 126.82821 23044 ft 459 kts 184°
2026-04-29 09:56 36.60450 126.82949 23332 ft 461 kts 184°
2026-04-29 09:57 36.57241 126.83075 23639 ft 463 kts 184°
2026-04-29 09:57 36.54014 126.83200 23968 ft 461 kts 184°
2026-04-29 09:57 36.50806 126.83322 24265 ft 461 kts 184°
2026-04-29 09:57 36.47602 126.83442 24581 ft 460 kts 185°
2026-04-29 09:58 36.44431 126.83560 24860 ft 461 kts 185°
2026-04-29 09:58 36.41219 126.83680 25085 ft 462 kts 185°
2026-04-29 09:58 36.38003 126.83763 25338 ft 460 kts 188°
2026-04-29 09:58 36.34841 126.83515 25717 ft 452 kts 192°
2026-04-29 09:59 36.31726 126.83132 26070 ft 449 kts 193°
2026-04-29 09:59 36.28615 126.82737 26090 ft 449 kts 192°
2026-04-29 09:59 36.25499 126.82359 26093 ft 449 kts 192°
2026-04-29 09:59 36.22391 126.82006 26104 ft 448 kts 192°
2026-04-29 10:00 36.19280 126.81667 26108 ft 447 kts 192°
2026-04-29 10:00 36.16183 126.81334 26094 ft 447 kts 192°
2026-04-29 10:00 36.13122 126.81004 26103 ft 447 kts 192°
2026-04-29 10:00 36.10027 126.80669 26111 ft 446 kts 192°
2026-04-29 10:01 36.06934 126.80333 26112 ft 446 kts 192°
2026-04-29 10:01 36.03843 126.79997 26120 ft 446 kts 192°
2026-04-29 10:01 36.00748 126.79661 26117 ft 446 kts 192°
2026-04-29 10:01 35.97644 126.79325 26098 ft 446 kts 192°
2026-04-29 10:02 35.94547 126.78990 26109 ft 446 kts 192°
2026-04-29 10:02 35.91459 126.78656 26111 ft 446 kts 192°
2026-04-29 10:02 35.88366 126.78321 26120 ft 445 kts 192°
2026-04-29 10:02 35.85274 126.77986 26128 ft 445 kts 192°
2026-04-29 10:03 35.82229 126.77657 26134 ft 445 kts 192°
2026-04-29 10:03 35.79142 126.77322 26129 ft 445 kts 192°
2026-04-29 10:03 35.76049 126.76988 26124 ft 445 kts 192°
2026-04-29 10:03 35.72962 126.76654 26128 ft 445 kts 192°
2026-04-29 10:04 35.69877 126.76321 26119 ft 445 kts 192°
2026-04-29 10:04 35.66791 126.75988 26131 ft 444 kts 192°
2026-04-29 10:04 35.63709 126.75656 26122 ft 444 kts 192°
2026-04-29 10:04 35.60628 126.75324 26133 ft 444 kts 192°
2026-04-29 10:05 35.57548 126.74992 26112 ft 444 kts 193°
2026-04-29 10:05 35.54467 126.74654 26121 ft 443 kts 193°
2026-04-29 10:05 35.51401 126.74291 26133 ft 443 kts 192°
2026-04-29 10:05 35.48323 126.73982 26122 ft 444 kts 192°
2026-04-29 10:06 35.45256 126.73671 26140 ft 443 kts 192°
2026-04-29 10:06 35.42177 126.73348 26117 ft 444 kts 192°
2026-04-29 10:06 35.39126 126.73022 26116 ft 443 kts 193°
2026-04-29 10:06 35.36048 126.72692 26120 ft 443 kts 193°
2026-04-29 10:07 35.32980 126.72363 26117 ft 442 kts 193°
2026-04-29 10:07 35.29914 126.72035 26123 ft 442 kts 193°
2026-04-29 10:07 35.26857 126.71708 26111 ft 441 kts 193°
2026-04-29 10:07 35.23799 126.71381 26114 ft 441 kts 193°
2026-04-29 10:08 35.20741 126.71055 26123 ft 440 kts 193°
2026-04-29 10:08 35.17686 126.70730 26105 ft 439 kts 193°
2026-04-29 10:08 35.14639 126.70406 26109 ft 438 kts 193°
2026-04-29 10:08 35.11599 126.70083 26110 ft 437 kts 193°
2026-04-29 10:09 35.08599 126.69765 26113 ft 437 kts 193°
2026-04-29 10:09 35.05566 126.69443 26109 ft 436 kts 193°
2026-04-29 10:09 35.02546 126.69123 26108 ft 435 kts 193°
2026-04-29 10:09 34.99525 126.68802 26111 ft 435 kts 193°
2026-04-29 10:10 34.96518 126.68483 26108 ft 435 kts 193°
2026-04-29 10:10 34.93499 126.68163 26108 ft 435 kts 193°
2026-04-29 10:10 34.90470 126.67842 26109 ft 435 kts 193°
2026-04-29 10:10 34.87455 126.67523 26104 ft 435 kts 193°
2026-04-29 10:11 34.84439 126.67204 25825 ft 439 kts 193°
2026-04-29 10:11 34.81377 126.66877 25050 ft 440 kts 193°
2026-04-29 10:11 34.78338 126.66559 24427 ft 435 kts 193°
2026-04-29 10:11 34.75337 126.66248 23783 ft 431 kts 193°
2026-04-29 10:12 34.72360 126.65937 23013 ft 428 kts 193°
2026-04-29 10:12 34.69444 126.65630 22327 ft 423 kts 192°
2026-04-29 10:12 34.66524 126.65324 21633 ft 418 kts 192°
2026-04-29 10:12 34.63647 126.65023 21044 ft 412 kts 192°
2026-04-29 10:13 34.60795 126.64722 20396 ft 409 kts 192°
2026-04-29 10:13 34.57980 126.64424 19758 ft 405 kts 191°
2026-04-29 10:13 34.55177 126.64129 19131 ft 402 kts 191°
2026-04-29 10:13 34.52399 126.63841 18518 ft 399 kts 191°
2026-04-29 10:14 34.49636 126.63548 17789 ft 398 kts 191°
2026-04-29 10:14 34.46893 126.63257 17146 ft 393 kts 190°
2026-04-29 10:14 34.44179 126.62973 16520 ft 390 kts 189°
2026-04-29 10:14 34.41509 126.62694 15930 ft 387 kts 189°
2026-04-29 10:15 34.38835 126.62416 15350 ft 384 kts 189°
2026-04-29 10:15 34.36174 126.62138 14780 ft 382 kts 188°
2026-04-29 10:15 34.33524 126.61861 14208 ft 382 kts 188°
2026-04-29 10:15 34.30870 126.61583 13580 ft 384 kts 187°
2026-04-29 10:16 34.28196 126.61304 12966 ft 387 kts 187°
2026-04-29 10:16 34.26414 126.61119 12565 ft 389 kts 187°
2026-04-29 10:16 34.22805 126.60861 11931 ft 386 kts 180°
2026-04-29 10:16 34.20170 126.61190 11656 ft 378 kts 172°
2026-04-29 10:17 34.17618 126.61850 11423 ft 367 kts 170°
2026-04-29 10:17 34.15183 126.62532 11322 ft 353 kts 170°
2026-04-29 10:17 34.12833 126.63192 11238 ft 340 kts 170°
2026-04-29 10:17 34.10574 126.63822 11107 ft 325 kts 170°
2026-04-29 10:18 34.08428 126.64413 10787 ft 314 kts 170°
2026-04-29 10:18 34.06333 126.64985 10536 ft 302 kts 170°
2026-04-29 10:18 34.04333 126.65528 10417 ft 286 kts 171°
2026-04-29 10:18 34.02422 126.66045 10155 ft 279 kts 171°
2026-04-29 10:19 34.00515 126.66556 9803 ft 280 kts 170°
2026-04-29 10:19 33.98639 126.67059 9537 ft 278 kts 170°
2026-04-29 10:19 33.96760 126.67564 9248 ft 276 kts 170°
2026-04-29 10:19 33.94866 126.68072 8964 ft 274 kts 170°
2026-04-29 10:20 33.93026 126.68566 8680 ft 273 kts 169°
2026-04-29 10:20 33.91168 126.69064 8399 ft 272 kts 169°
2026-04-29 10:20 33.89326 126.69558 8126 ft 271 kts 169°
2026-04-29 10:20 33.87498 126.70048 7804 ft 267 kts 169°
2026-04-29 10:21 33.85685 126.70534 7359 ft 267 kts 169°
2026-04-29 10:21 33.83873 126.71020 6914 ft 266 kts 168°
2026-04-29 10:21 33.82060 126.71506 6492 ft 265 kts 168°
2026-04-29 10:21 33.80289 126.71979 6143 ft 264 kts 167°
2026-04-29 10:22 33.78498 126.72458 5849 ft 264 kts 167°
2026-04-29 10:22 33.76706 126.72938 5583 ft 263 kts 166°
2026-04-29 10:22 33.74949 126.73408 5462 ft 255 kts 166°
2026-04-29 10:22 33.73240 126.73866 5344 ft 247 kts 167°
2026-04-29 10:23 33.71608 126.74304 5259 ft 233 kts 167°
2026-04-29 10:23 33.70069 126.74713 5154 ft 219 kts 167°
2026-04-29 10:23 33.68619 126.75093 4972 ft 209 kts 167°
2026-04-29 10:23 33.67226 126.75466 4775 ft 201 kts 167°
2026-04-29 10:24 33.65873 126.75778 4547 ft 195 kts 179°
2026-04-29 10:24 33.64651 126.75253 4376 ft 189 kts 225°
2026-04-29 10:24 33.63843 126.73993 4189 ft 196 kts 239°
2026-04-29 10:24 33.63149 126.72599 4060 ft 195 kts 241°
2026-04-29 10:25 33.62453 126.71198 3864 ft 200 kts 240°
2026-04-29 10:25 33.61734 126.69781 3753 ft 191 kts 240°
2026-04-29 10:25 33.61069 126.68481 3717 ft 183 kts 240°
2026-04-29 10:25 33.60382 126.67140 3467 ft 186 kts 240°
2026-04-29 10:26 33.59718 126.65846 3222 ft 183 kts 240°
2026-04-29 10:26 33.59058 126.64559 2980 ft 178 kts 240°
2026-04-29 10:26 33.58428 126.63330 2747 ft 173 kts 239°
2026-04-29 10:26 33.57810 126.62124 2521 ft 167 kts 239°
2026-04-29 10:27 33.56624 126.59810 2064 ft 161 kts 240°
2026-04-29 10:27 33.56042 126.58674 1811 ft 160 kts 239°
2026-04-29 10:27 33.55464 126.57536 1624 ft 159 kts 239°
2026-04-29 10:28 33.54897 126.56416 1385 ft 157 kts 239°
2026-04-29 10:28 33.54311 126.55298 1196 ft 159 kts 239°
2026-04-29 10:28 33.53735 126.54169 995 ft 158 kts 240°
2026-04-29 10:28 33.53166 126.53039 767 ft 159 kts 239°
2026-04-29 10:29 33.52591 126.51917 540 ft 155 kts 239°
2026-04-29 10:29 33.52029 126.50824 319 ft 154 kts 239°
2026-04-29 10:29 33.51471 126.49728 111 ft 154 kts 239°
2026-04-29 10:29 33.50961 126.48735 93 ft 114 kts 238°
2026-04-29 10:30 33.50653 126.48132 91 ft 58 kts 238°
2026-04-29 10:30 33.50487 126.47811 93 ft 28 kts 234°
2026-04-29 10:30 33.50382 126.47751 93 ft 18 kts 154°
2026-04-29 10:30 33.50314 126.47836 94 ft 12 kts 90°
2026-04-29 10:31 33.50349 126.47924 93 ft 12 kts 59°
2026-04-29 10:31 33.50378 126.47979 92 ft 12 kts 57°
2026-04-29 10:31 33.50421 126.48059 93 ft 11 kts 57°
2026-04-29 10:31 33.50473 126.48163 92 ft 11 kts 59°
2026-04-29 10:32 33.50500 126.48213 92 ft 11 kts 58°
2026-04-29 10:32 33.50537 126.48288 93 ft 10 kts 59°
2026-04-29 10:32 33.50573 126.48361 90 ft 10 kts 59°
2026-04-29 10:32 33.50610 126.48430 90 ft 10 kts 56°
2026-04-29 10:33 33.50646 126.48497 90 ft 10 kts 58°
2026-04-29 10:33 33.50679 126.48565 92 ft 9 kts 59°
2026-04-29 10:33 33.50714 126.48629 91 ft 9 kts 59°
2026-04-29 10:33 33.50746 126.48693 89 ft 9 kts 59°
2026-04-29 10:34 33.50775 126.48750 90 ft 0 kts 58°
2026-04-29 10:34 33.50778 126.48756 92 ft 2 kts 58°
2026-04-29 10:34 33.50789 126.48777 90 ft 4 kts 58°
2026-04-29 10:34 33.50800 126.48806 88 ft 4 kts 73°
2026-04-29 10:35 33.50793 126.48844 89 ft 6 kts 123°
2026-04-29 10:35 33.50758 126.48878 91 ft 7 kts 147°
2026-04-29 10:35 33.50721 126.48907 88 ft 6 kts 147°
2026-04-29 10:35 33.50704 126.48952 92 ft 6 kts 85°
2026-04-29 10:36 33.50722 126.48998 90 ft 6 kts 59°
2026-04-29 10:36 33.50744 126.49041 88 ft 6 kts 57°
2026-04-29 10:36 33.50766 126.49082 91 ft 6 kts 57°
2026-04-29 10:36 33.50788 126.49124 88 ft 6 kts 57°
2026-04-29 10:37 33.50788 126.49151 89 ft 3 kts 132°
2026-04-29 10:37 33.50767 126.49160 89 ft 3 kts 163°
2026-04-29 10:37 33.50745 126.49167 90 ft 3 kts 164°
2026-04-29 10:37 33.50726 126.49174 91 ft 2 kts 157°
2026-04-29 10:38 33.50714 126.49180 89 ft 2 kts 157°
2026-04-29 10:38 33.50707 126.49184 89 ft 0 kts 156°